Location: Rowland
(34.5359°N, 79.2929°W)
Time: 15:58:32
(UTC+00:00)

A-11 Canister half - Pass Details

Date: 08 October 2022
Orbit: 1515 x 1684 km, 47.2° (Epoch: 06 December)

Event Time Altitude Azimuth Distance (km) Brightness Sun altitude
Rises 23:09:07 0° 222° (SW) 4,899 12.4 -4.4°
Reaches altitude 10° 23:12:19 10° 220° (SW) 3,898 11.8 -5.1°
Maximum altitude 23:22:12 70° 138° (SE) 1,701 9.1 -7.1°
Drops below altitude 10° 23:31:45 10° 58° (ENE) 3,780 10.5 -9.1°
Enters shadow 23:33:41 - 56° (ENE) 4,389 10.9 -9.5°
